Simultaneous Nadir Overpasses (SNOs) Predictions

Prediction of SNOs between GOES-16 and FY3D Satellite Orbit:

Table of predicted SNOs for the next 14.0 days since TLE Epoch: 3/16/2024
Index Date Time (GOES-16) GOES-16 Lat,Lon FY3D Lat,Lon Distance(km) Time Diff (sec)
1 03/16/2024 19:36:51 0.04, -75.20 -0.51, -77.70 284.28 80
2 03/17/2024 19:18:20 0.04, -75.21 0.47, -73.20 227.55 80
3 03/19/2024 07:40:31 -0.03, -75.22 0.75, -78.53 377.99 80
4 03/20/2024 07:19:21 -0.03, -75.23 -0.29, -74.05 134.23 80
5 03/21/2024 19:44:19 0.02, -75.24 -0.91, -79.41 475.82 80
6 03/22/2024 19:25:49 0.02, -75.25 0.07, -74.92 37.11 80
7 03/25/2024 07:29:30 -0.02, -75.30 0.09, -75.77 53.58 80
8 03/26/2024 07:08:20 -0.02, -75.31 -0.96, -71.29 459.65 80
9 03/27/2024 19:33:18 0.02, -75.33 -0.29, -76.64 149.22 80
10 03/28/2024 19:12:08 0.02, -75.35 0.76, -72.16 364.30 80
